This is the latest recevied weather packets stored in our database for station/object CA3SQH-10. If no packets are shown the sender has not sent any weather packets the latest 1 day(s).
| Time | Temp. | Humidity | Pressure | Rain* | Wind** | Luminosity | Snow |
|---|---|---|---|---|---|---|---|
| 1777915617 | 22.22° C | 33% | 938 hPa | - | - | - | - |
| 1777915596 | 22.22° C | 33% | 938 hPa | - | - | - | - |
| 1777915425 | 22.22° C | 33% | 938.1 hPa | - | - | - | - |
| 1777914525 | 21.67° C | 33% | 938.2 hPa | - | - | - | - |
| 1777913625 | 21.67° C | 34% | 938.3 hPa | - | - | - | - |
| 1777912724 | 21.11° C | 36% | 938.4 hPa | - | - | - | - |
| 1777912705 | 21.11° C | 35% | 938.4 hPa | - | - | - | - |
| 1777912112 | 21.11° C | 34% | 938.3 hPa | - | - | - | - |
| 1777911211 | 21.11° C | 36% | 938.5 hPa | - | - | - | - |
| 1777910311 | 21.11° C | 36% | 938.7 hPa | - | - | - | - |
| 1777909411 | 21.67° C | 35% | 938.8 hPa | - | - | - | - |
| 1777908511 | 21.67° C | 34% | 938.8 hPa | - | - | - | - |
| 1777907611 | 21.67° C | 34% | 938.7 hPa | - | - | - | - |
| 1777906710 | 20.56° C | 35% | 938.8 hPa | - | - | - | - |
| 1777905816 | 20.56° C | 39% | 938.8 hPa | - | - | - | - |
| 1777904915 | 20° C | 38% | 938.8 hPa | - | - | - | - |
| 1777904015 | 18.89° C | 39% | 938.8 hPa | - | - | - | - |
| 1777903115 | 18.33° C | 42% | 938.9 hPa | - | - | - | - |
| 1777902215 | 17.78° C | 45% | 938.9 hPa | - | - | - | - |
| 1777901315 | 17.78° C | 47% | 938.8 hPa | - | - | - | - |
| 1777900414 | 17.22° C | 48% | 938.7 hPa | - | - | - | - |
| 1777899514 | 17.22° C | 47% | 938.7 hPa | - | - | - | - |
| 1777898614 | 16.67° C | 46% | 938.5 hPa | - | - | - | - |
| 1777897713 | 16.67° C | 47% | 938.4 hPa | - | - | - | - |
| 1777896813 | 16.11° C | 48% | 938.5 hPa | - | - | - | - |
* Rain since midnight (hover to see other rain measurements)
** Current wind speed in m/s (hover to see current wind gust speed)